RH
2 2 2 2 2 3 3 3 3 3 3 3 3 3 3 3 4 3 4 4 3 4 3 3 3 2 3 3 2 3 2 2 2 2 2 2 2 2 2 2 2 2 2 1 2 2 1 2 1 1 1 1 2 4 25 66 94 96 94 97 99 95 92 96 89 61 45 55 66 69 70 55 26 8
2 2 2 3 3 3 4 3 4 3 3 4 4 4 4 4 4 4 4 4 3 4 3 3 3 3 3 3 2 3 2 2 2 2 2 2 2 2 1 2 2 1 2 1 2 2 1 2 1 2 2 1 2 1 10 50 89 96 93 97 98 97 97 97 97 86 66 61 68 74 80 81 61 27
3 3 3 3 4 4 4 4 4 4 4 4 4 4 4 4 4 4 4 4 3 3 3 3 3 3 2 3 2 2 2 2 2 2 2 2 2 3 2 2 2 2 2 2 1 2 1 2 1 1 2 1 2 1 1 29 73 91 91 99 101 98 99 98 96 98 89 75 70 70 72 83 86 61
3 3 3 4 4 4 4 4 4 4 4 5 4 4 5 4 4 4 4 4 4 3 3 3 3 3 2 2 2 2 2 2 2 2 2 2 2 3 4 4 4 4 4 3 2 2 1 1 2 1 2 1 1 2 -1 9 48 81 89 94 101 99 98 100 98 98 99 94 86 78 77 85 94 86
3 4 4 4 4 4 4 4 4 5 4 5 5 4 5 5 4 4 4 4 4 3 3 3 3 3 2 2 2 2 2 1 2 2 4 5 6 7 8 8 9 9 9 8 6 4 3 1 2 1 2 2 0 2 2 -1 18 58 86 93 96 99 98 98 100 100 97 99 98 92 91 94 97 96
4 4 4 4 4 4 4 5 5 5 5 5 5 5 5 5 5 5 4 4 4 4 3 3 3 2 2 2 2 2 2 2 3 5 7 11 14 16 16 17 19 20 19 19 16 11 7 3 2 2 1 2 1 0 3 1 0 23 62 87 93 97 100 99 99 101 98 97 99 98 97 96 98 98
4 5 4 4 5 4 5 5 5 5 5 5 5 5 5 5 5 5 5 4 4 4 4 3 3 3 2 2 3 4 5 7 9 10 13 17 21 25 28 28 30 32 31 31 29 24 17 9 4 2 1 1 2 1 0 3 1 2 25 65 90 96 98 101 100 99 100 99 97 98 98 97 99 100
4 5 5 5 5 5 5 5 5 5 5 5 6 6 6 6 5 5 5 5 4 4 4 3 3 3 2 3 5 7 9 13 17 19 21 23 26 29 34 35 36 38 39 39 38 34 27 19 10 5 3 1 1 2 1 1 3 0 3 33 76 94 92 96 101 98 99 101 98 98 101 100 98 100
5 5 5 5 5 5 5 5 5 5 5 6 6 6 6 6 5 6 5 5 5 4 4 3 3 3 3 4 8 13 16 18 22 26 28 30 31 31 33 37 38 39 40 40 39 37 33 28 21 12 6 2 1 1 2 1 1 3 -0 10 50 86 90 88 96 99 98 100 101 99 99 100 99 99
5 5 5 5 5 5 5 5 5 6 6 6 6 6 6 6 6 6 5 5 5 4 4 3 3 3 4 6 10 17 23 26 28 31 31 32 35 36 33 33 36 38 39 38 37 36 35 32 28 21 12 6 3 1 1 2 0 2 2 1 22 64 87 87 89 97 99 98 99 100 99 100 101 98
5 5 5 5 6 5 6 6 5 6 6 6 7 7 6 6 6 6 6 6 5 5 4 4 3 3 5 9 14 20 25 29 33 37 35 31 33 36 36 35 36 39 40 38 35 34 34 34 32 28 21 11 5 2 1 2 1 0 2 0 4 31 67 86 90 94 99 100 99 100 100 100 100 100
5 5 5 5 6 6 6 6 6 7 7 7 7 7 7 7 7 6 6 6 5 5 4 4 4 5 7 12 17 21 25 28 34 41 43 39 35 36 37 39 41 42 41 37 34 33 33 34 33 31 27 20 12 6 2 1 2 1 1 2 0 6 30 62 85 93 97 99 98 96 99 101 99 99
5 6 6 6 6 6 6 6 7 7 7 7 7 7 7 7 7 7 7 6 6 6 5 5 5 6 9 14 18 21 26 32 38 45 49 47 43 40 39 41 46 48 43 34 33 37 38 35 34 33 32 29 22 13 6 3 2 2 1 1 2 1 4 22 55 86 97 97 98 98 97 100 100 98
6 6 6 6 6 6 6 7 8 7 7 8 8 8 8 8 8 7 7 7 6 6 5 6 6 7 11 16 20 24 30 39 46 51 54 51 47 46 43 41 45 50 46 37 33 41 46 41 35 36 37 35 31 24 15 8 3 2 2 1 1 2 1 2 20 61 93 96 95 99 99 98 99 99
6 6 6 6 7 7 7 7 8 8 8 8 9 9 9 9 9 8 7 7 7 6 6 6 7 10 13 17 22 27 34 44 52 58 61 59 55 54 52 45 46 52 51 44 39 43 52 51 42 39 40 39 37 32 25 16 8 3 2 2 1 1 2 1 2 30 75 95 91 91 98 99 97 99
6 6 7 7 7 7 7 8 8 8 9 9 9 9 9 9 9 9 8 8 7 7 7 7 9 12 15 19 23 30 40 50 58 63 67 69 66 64 61 54 51 56 57 53 49 48 54 58 51 46 47 44 40 37 33 26 16 8 4 2 3 2 1 2 0 6 39 77 86 82 90 99 98 97
6 7 7 7 8 8 8 8 8 8 9 9 9 10 10 10 10 9 9 8 8 8 7 7 10 13 17 21 25 35 48 57 64 69 72 75 75 70 66 60 57 62 64 60 53 49 55 60 56 56 59 54 46 40 37 34 26 16 8 4 2 3 1 1 3 -0 7 37 63 70 83 100 101 97
6 7 8 8 8 8 8 9 9 9 10 9 9 10 10 10 10 10 10 9 8 8 8 8 10 14 18 22 28 42 57 66 74 78 77 77 77 72 67 62 62 68 73 70 58 50 56 61 56 58 65 63 57 52 43 38 34 25 15 9 4 3 4 0 1 3 -1 6 25 42 66 94 102 99
7 8 8 8 8 9 9 9 10 10 10 10 10 10 10 10 10 10 10 10 9 9 8 8 11 14 17 23 32 46 62 75 82 82 80 77 74 70 65 63 67 75 81 80 67 54 57 63 56 56 63 62 61 64 56 44 39 33 23 16 8 4 5 2 0 2 1 0 5 13 38 78 100 101
8 8 9 9 9 10 10 10 11 10 10 10 10 10 10 10 10 10 10 11 10 9 9 8 10 13 17 22 32 46 63 78 82 78 76 74 70 68 66 64 66 73 81 87 80 66 66 69 59 56 65 67 63 66 65 54 43 37 30 22 15 9 7 4 2 1 1 1 2 1 16 58 93 101
9 9 9 10 10 11 11 11 11 11 11 11 10 10 11 10 10 10 10 11 11 10 9 9 9 11 15 19 27 41 62 79 82 76 73 72 70 69 65 56 50 53 67 83 81 72 74 76 67 60 64 68 67 66 65 60 52 42 34 28 21 15 11 8 3 2 2 0 2 1 8 45 88 102
10 9 10 11 11 12 12 12 12 11 11 11 10 10 11 11 10 10 10 10 11 10 9 9 8 9 12 16 22 36 60 80 85 80 77 75 74 73 69 62 52 45 58 79 80 71 73 77 76 74 66 60 66 70 65 61 59 50 38 32 27 20 16 12 5 2 2 0 1 0 5 39 85 103
10 10 11 12 13 13 13 13 13 12 11 11 11 10 11 11 10 10 11 10 11 11 10 9 8 8 9 13 18 32 57 81 89 88 85 83 82 80 77 78 72 57 54 72 82 77 72 66 64 70 66 55 57 71 74 66 63 59 47 36 31 25 20 16 10 4 1 1 2 0 6 40 82 100
11 12 13 15 15 14 15 15 14 13 12 11 11 11 11 11 11 11 12 12 11 11 11 10 9 8 8 10 15 26 51 78 93 95 94 94 93 90 86 86 87 80 74 82 90 88 84 75 65 66 70 60 51 60 75 75 68 64 56 44 35 31 27 21 14 6 1 1 2 -1 5 35 69 88
12 14 16 17 17 16 16 16 16 15 14 12 12 12 12 12 12 12 13 13 12 11 11 11 10 8 8 9 12 21 42 71 93 100 99 99 98 95 92 89 90 94 93 90 93 96 95 93 87 83 86 84 69 62 71 78 74 67 60 51 41 36 31 26 18 9 2 1 3 1 2 18 40 62
14 16 17 18 18 17 17 18 17 17 16 14 13 13 13 13 13 13 14 13 12 12 11 11 10 9 8 9 11 17 32 57 86 99 100 100 99 98 97 95 95 97 89 80 88 100 100 98 99 97 95 97 93 81 74 74 75 71 63 55 46 38 33 28 21 12 4 0 1 1 0 4 16 39
15 17 18 19 19 18 18 19 19 18 18 16 15 14 13 14 13 13 14 14 13 12 11 11 11 10 10 9 10 15 24 42 69 92 99 100 99 99 98 95 97 100 92 84 92 101 96 93 97 99 99 100 100 95 85 80 80 76 67 58 50 42 35 30 23 15 7 2 2 2 1 1 7 29
15 16 18 19 19 19 19 19 20 20 19 19 18 16 14 14 14 13 14 14 13 13 12 12 11 11 11 10 10 14 19 29 49 75 94 100 99 100 100 97 96 99 97 95 100 100 95 93 96 98 100 100 100 99 97 95 92 84 73 63 54 45 39 33 25 16 8 3 2 1 1 2 -1 11
15 15 16 17 18 18 19 19 20 21 21 20 20 18 16 16 15 14 14 14 14 14 13 13 12 11 12 11 10 12 16 22 33 52 77 94 98 98 99 98 96 97 97 96 99 100 97 96 96 95 95 98 101 100 99 99 95 85 75 66 55 46 40 32 24 18 11 6 5 1 -0 4 2 3
14 14 14 15 16 17 18 19 20 22 22 22 22 21 19 18 16 16 15 15 15 15 14 14 13 13 13 12 11 11 12 16 23 34 53 77 92 95 95 95 95 97 97 96 98 99 96 92 92 93 95 99 99 95 95 97 90 76 67 61 52 45 40 32 25 21 14 6 5 3 -0 1 0 4
13 13 13 14 15 15 16 17 18 20 22 23 24 24 22 20 18 17 17 16 16 15 15 15 14 14 14 13 12 11 10 12 17 25 36 56 77 90 93 93 95 98 99 98 98 99 99 94 89 91 95 95 94 96 97 99 95 79 60 50 47 42 36 30 25 23 19 11 6 3 3 4 2 6
13 13 13 13 14 15 16 16 17 19 21 23 25 25 25 24 21 19 18 17 17 16 15 16 15 15 14 14 13 12 11 11 13 19 26 38 58 78 88 91 93 97 100 101 99 99 101 97 91 93 93 85 88 96 94 96 106 88 49 36 43 39 32 38 48 43 24 7 6 4 -3 -1 2 -3
14 14 14 14 14 15 16 16 16 17 19 21 24 25 26 26 25 22 21 19 18 17 17 16 16 16 15 15 15 14 13 11 11 14 20 28 39 58 76 86 91 93 97 101 100 99 101 100 97 100 98 86 87 93 84 85 95 76 48 56 70 49 27 36 56 57 26 -1 11 26 17 23 44 30
15 15 14 14 14 14 15 16 15 15 16 17 20 23 25 27 27 26 24 22 20 19 18 17 17 17 17 16 16 15 14 13 12 11 15 21 28 39 56 73 84 89 92 97 100 99 100 100 99 100 100 95 97 99 92 85 79 66 68 90 87 57 42 40 43 56 54 33 39 54 45 50 77 62
15 15 14 13 14 13 14 15 15 15 15 15 16 20 23 26 28 28 27 25 23 21 20 19 18 18 18 18 18 17 16 15 14 12 11 15 21 28 39 53 70 82 88 93 98 100 99 100 99 99 101 100 98 99 101 97 89 84 93 99 79 63 74 77 64 71 89 88 85 90 84 83 82 57
15 15 14 13 13 13 13 14 14 15 15 15 15 18 21 24 28 30 30 28 26 23 22 20 20 19 20 20 19 19 19 17 16 15 12 11 14 20 28 38 50 66 78 87 95 99 99 100 100 99 100 100 92 87 92 99 100 99 100 101 92 79 77 83 83 79 78 84 91 90 85 87 80 56
15 14 14 13 13 12 13 14 14 14 15 16 16 17 19 23 27 31 33 32 30 27 24 22 21 21 21 21 21 21 21 20 18 17 15 13 12 14 20 28 36 47 60 72 83 91 94 97 99 98 98 99 92 85 88 94 96 97 96 98 105 98 77 74 85 81 68 75 88 82 70 70 70 63
15 14 13 12 12 12 12 13 14 15 15 16 17 18 20 22 25 30 33 35 34 31 28 25 24 23 22 22 22 22 22 21 21 20 18 16 14 12 14 19 25 33 44 55 66 78 84 87 91 93 95 99 98 95 97 96 91 92 93 91 95 103 100 93 91 88 87 92 97 94 90 88 88 90
15 14 13 13 12 12 12 12 13 15 15 16 18 19 20 22 24 27 31 34 36 36 33 29 27 25 24 24 24 24 24 23 22 22 20 19 17 14 12 14 17 22 31 39 49 61 70 75 82 88 90 95 99 98 100 101 97 94 91 82 75 82 96 102 98 93 94 94 90 89 88 84 84 92
15 14 13 13 12 12 12 12 12 14 15 16 18 19 20 21 22 25 28 30 33 36 37 35 32 29 28 27 26 25 26 25 23 23 23 22 20 17 14 13 13 15 20 27 36 47 57 65 74 81 84 89 97 100 99 99 101 101 97 89 79 72 75 84 91 92 92 93 93 93 91 86 84 87
14 14 13 13 13 12 12 11 12 13 14 15 17 19 20 20 21 23 25 28 29 33 36 38 37 35 32 31 30 28 28 27 26 25 24 23 23 22 18 15 13 12 13 19 27 38 48 56 63 70 74 76 81 86 87 87 91 96 98 98 97 92 85 83 88 92 93 93 93 93 95 95 95 95
14 14 14 13 13 13 12 12 12 12 13 13 15 17 19 21 22 22 24 26 28 30 33 36 38 39 37 35 34 33 31 30 28 27 26 24 24 24 22 19 16 14 13 15 20 27 35 42 48 53 58 59 60 63 68 75 82 88 91 93 95 98 98 97 96 96 98 98 98 98 98 98 98 99
15 14 14 14 14 13 13 12 11 11 11 11 12 14 17 20 22 22 23 25 27 29 31 32 35 38 40 40 39 38 36 34 32 29 28 26 25 25 25 23 20 17 15 14 15 18 21 25 30 34 38 43 49 55 60 67 74 78 83 88 90 91 94 97 99 98 97 96 95 95 95 95 95 94
15 14 14 14 14 13 13 13 11 10 10 10 11 13 15 17 20 21 22 24 26 27 28 30 32 35 39 41 43 43 41 39 37 33 31 29 27 26 26 26 24 21 19 16 14 14 14 15 19 23 25 29 39 49 56 61 66 71 77 83 87 89 93 97 100 98 95 92 93 94 95 95 94 92
15 14 13 13 13 13 12 12 11 9 10 10 11 13 14 16 18 21 23 26 27 27 28 30 30 32 36 39 42 45 45 44 42 38 34 32 31 28 27 27 27 24 22 20 17 15 14 14 14 16 19 22 29 39 49 54 59 64 70 75 78 83 89 93 96 93 87 84 87 93 95 94 93 92
Wind_Speed
24 23 23 23 24 25 26 27 28 30 31 32 33 34 35 36 37 36 34 33 33 32 33 35 34 33 34 36 37 37 38 39 40 40 40 40 39 39 39 40 40 40 39 38 37 38 38 38 38 37 36 34 33 36 38 36 35 35 35 37 37 36 38 36 35 36 35 33 32 30 27 25 29 35
23 23 23 23 24 25 26 28 29 30 32 33 34 35 36 37 38 39 38 36 37 36 35 36 38 36 35 36 37 38 39 40 40 41 42 42 41 41 41 41 41 41 41 41 39 38 38 39 39 38 38 37 35 36 39 39 37 36 39 42 41 38 40 39 37 38 37 36 35 33 31 28 27 31
22 22 22 23 24 26 27 28 29 30 32 33 34 35 36 37 37 39 39 37 37 39 39 38 39 40 38 37 37 37 37 39 40 41 41 42 42 42 41 42 42 42 42 43 42 40 39 39 40 40 39 39 37 36 38 41 40 38 41 43 42 41 41 41 40 40 39 39 39 36 34 32 30 29
21 21 22 23 25 26 27 28 29 30 31 32 33 35 36 37 37 38 39 39 37 38 40 40 40 41 41 40 39 39 38 38 39 40 40 40 41 41 40 41 41 41 42 42 43 43 41 40 40 41 40 40 40 38 38 41 43 42 40 40 41 43 42 40 39 41 42 41 40 39 37 35 35 31
21 21 22 23 24 26 27 28 29 30 31 32 33 34 34 35 37 38 39 40 39 37 38 40 41 42 44 44 43 43 42 40 39 38 38 38 38 38 38 38 38 39 40 40 42 43 43 42 41 41 42 41 41 41 39 40 43 44 43 41 41 41 43 41 38 40 44 43 41 41 39 38 37 34
21 21 22 23 24 25 26 27 28 29 30 31 32 32 33 34 36 38 39 40 41 40 40 41 42 43 45 46 46 47 47 44 42 39 36 35 34 34 35 36 35 35 37 38 39 42 43 44 43 42 42 43 43 43 42 41 43 45 45 44 42 39 40 43 43 43 44 44 43 42 41 41 40 37
21 21 22 23 24 25 26 27 28 29 30 30 31 32 33 34 35 36 38 40 41 42 42 42 44 45 46 47 48 48 48 46 44 41 36 33 32 32 32 33 32 32 33 35 37 39 42 43 44 43 43 44 44 45 44 43 42 45 47 47 45 43 42 44 47 47 46 45 44 43 43 43 43 41
20 21 22 23 24 25 26 27 28 29 30 30 31 32 33 33 34 35 37 39 41 43 43 44 45 46 47 48 48 49 49 47 45 42 39 35 32 31 30 30 29 29 30 32 34 37 40 42 44 44 44 44 45 46 47 46 44 44 47 49 48 47 46 46 47 48 49 47 45 45 44 44 45 45
20 20 21 22 23 24 26 27 28 28 29 30 31 32 33 33 34 35 37 39 40 42 44 45 46 47 48 49 49 49 49 48 46 44 41 37 34 32 29 27 27 27 28 30 32 34 38 41 43 43 44 44 46 47 48 48 48 46 46 49 51 50 49 48 47 47 49 49 47 46 45 44 45 47
19 20 21 22 23 24 25 26 27 28 29 31 32 32 33 34 35 36 37 39 40 42 44 46 47 47 48 49 49 49 49 50 49 47 43 37 35 34 30 27 26 28 30 31 31 33 35 39 41 43 43 43 45 47 49 50 50 49 47 48 52 53 52 50 48 47 48 50 50 49 47 46 45 47
18 20 21 22 23 25 26 26 27 28 29 30 32 33 34 35 36 37 38 39 41 42 44 46 48 48 49 49 50 50 50 50 50 49 47 40 36 37 36 33 31 32 33 32 32 32 34 36 40 43 44 44 44 46 49 51 52 51 50 49 51 54 55 53 51 49 49 50 51 51 50 48 46 46
18 19 21 22 23 24 25 26 28 29 30 31 32 34 35 37 38 38 39 40 42 43 45 46 48 49 49 50 51 51 52 52 51 51 51 48 44 41 41 40 39 38 35 32 32 32 33 35 39 42 45 46 45 45 47 51 53 53 53 51 51 54 57 57 54 52 50 49 50 52 51 48 47 48
18 20 21 22 23 23 25 27 28 29 31 32 34 35 37 38 39 39 40 41 43 44 46 47 49 50 51 51 53 54 54 55 55 54 54 54 52 49 45 44 44 43 37 32 30 30 32 35 38 41 44 47 48 47 47 49 53 54 55 54 52 53 55 58 58 55 53 51 49 51 52 50 48 48
19 20 21 21 22 23 24 26 27 28 30 32 34 35 37 38 39 40 41 42 44 45 46 47 50 52 52 53 54 56 56 56 56 57 58 58 57 56 53 47 44 41 36 34 31 27 29 34 37 38 41 44 47 50 49 48 51 54 55 56 55 54 55 57 59 58 56 53 51 50 52 53 53 51
19 20 21 21 22 23 24 25 26 27 29 31 32 33 35 36 38 40 42 43 44 45 46 47 49 52 53 54 54 56 57 58 58 58 60 60 60 61 60 54 46 37 33 35 33 27 25 30 35 35 37 41 45 49 51 50 50 52 55 57 57 56 56 56 59 61 59 56 53 51 51 54 55 54
19 20 21 22 22 23 24 24 26 27 29 30 31 32 33 34 36 38 40 42 43 45 46 47 49 51 53 54 55 57 58 59 59 59 59 61 63 64 64 60 50 36 30 34 35 30 24 25 31 32 33 37 42 46 50 51 51 52 53 56 58 58 57 57 58 60 62 60 57 53 52 53 55 56
18 19 21 22 23 23 24 24 26 27 28 29 30 31 32 33 34 35 36 38 41 43 46 47 48 50 52 54 55 56 58 59 59 60 61 63 65 65 64 58 47 34 28 32 35 32 26 23 27 28 27 32 38 42 46 50 52 53 53 54 56 58 58 58 58 59 62 63 61 57 54 53 55 56
18 19 20 21 22 23 24 25 27 27 28 29 29 30 31 32 33 34 34 36 38 41 44 46 47 48 50 53 54 55 56 57 58 60 62 64 65 65 60 50 38 30 28 32 36 35 29 25 26 25 24 27 32 37 43 47 50 53 53 53 54 56 57 58 58 59 60 62 62 61 58 54 55 57
18 19 20 21 22 24 25 27 28 28 28 29 30 31 32 32 33 33 35 37 39 41 43 44 46 47 48 50 53 54 54 54 55 58 60 63 64 60 51 39 29 24 26 30 35 37 33 29 28 26 24 25 26 29 36 44 48 51 53 54 53 53 54 56 58 59 60 61 61 61 60 57 55 57
17 19 20 21 23 25 26 27 28 28 29 29 30 30 31 32 33 33 34 36 38 40 41 42 44 45 47 48 50 51 52 52 54 57 60 62 61 53 45 37 29 24 25 29 34 38 35 31 29 27 25 24 23 23 28 37 45 49 51 53 53 51 50 53 56 58 59 60 60 60 60 59 56 56
17 18 20 22 24 25 27 27 28 28 29 29 30 30 31 32 33 34 34 36 37 38 40 41 42 44 45 47 48 50 50 50 54 58 62 63 57 47 42 41 37 33 30 30 32 34 31 28 27 28 26 23 21 21 24 30 38 45 49 51 53 52 48 48 51 56 58 60 60 59 59 59 56 56
16 18 20 23 24 25 27 28 29 29 29 30 30 31 32 33 34 36 37 37 38 38 39 40 41 43 45 47 49 51 50 50 53 58 61 61 54 44 41 43 44 41 36 34 34 32 28 24 24 28 28 22 18 20 22 24 30 38 45 49 51 51 48 46 47 52 57 59 59 58 58 58 56 55
16 19 21 23 24 25 27 28 29 30 30 30 31 32 33 33 35 37 39 40 40 40 40 41 43 44 46 48 50 52 51 50 52 56 60 59 53 46 44 44 46 46 42 38 37 35 32 28 27 30 32 24 16 17 20 20 23 30 39 45 48 49 48 45 44 49 55 58 59 58 57 58 57 56
17 19 21 22 23 24 26 27 28 29 30 30 31 32 33 35 36 37 38 39 40 41 42 43 44 46 47 49 50 52 52 51 52 55 58 58 53 48 45 45 45 45 43 41 40 40 40 37 31 29 31 27 19 17 18 18 19 24 32 40 44 45 46 44 43 45 52 57 58 57 58 59 60 59
17 18 20 21 22 23 25 26 27 29 30 30 31 32 33 35 36 37 37 38 39 40 41 42 44 46 48 49 51 53 54 53 52 54 56 56 52 47 45 45 45 43 41 39 39 40 41 40 34 29 27 25 21 18 16 17 18 20 26 34 39 41 42 42 41 43 49 55 56 56 57 59 60 61
16 17 18 20 21 23 24 25 27 28 29 30 31 32 33 33 34 35 36 37 38 40 41 43 44 46 49 51 52 54 55 54 52 52 54 54 51 46 44 44 43 42 40 37 36 37 38 38 35 31 28 25 21 18 16 15 16 18 22 28 34 37 39 39 39 40 45 51 54 54 55 57 59 58
15 16 17 19 21 22 24 25 26 27 28 30 31 31 32 32 33 34 35 36 37 39 41 43 44 47 49 52 53 54 56 56 53 50 50 51 50 47 44 42 40 38 35 32 32 33 33 31 27 26 28 26 20 15 13 13 13 15 18 23 28 32 34 35 35 36 39 45 49 51 52 55 57 57
14 15 16 18 20 22 23 24 25 27 28 29 30 31 32 32 33 33 34 36 37 39 41 43 45 46 48 50 52 54 55 55 53 49 46 47 47 45 43 43 41 39 34 30 29 29 27 26 25 24 26 23 14 9 9 6 7 9 12 16 21 25 27 29 30 31 34 40 44 47 50 52 54 55
14 15 16 18 19 21 22 24 25 26 27 28 29 31 31 32 33 33 34 36 37 39 40 42 44 46 47 48 50 51 51 52 53 51 47 46 45 42 41 41 42 43 40 34 31 29 27 28 27 22 18 16 10 5 3 4 2 3 6 10 15 18 20 23 24 25 29 35 40 43 46 49 51 52
14 15 16 17 19 21 22 23 24 25 26 27 28 29 30 31 32 34 35 36 38 39 40 41 43 45 45 46 47 48 49 51 53 54 52 49 47 44 43 42 43 46 46 41 35 32 30 31 27 17 10 11 8 4 7 7 4 3 3 5 8 11 14 17 18 21 25 30 35 38 41 44 47 49
14 15 16 17 19 20 22 23 24 25 26 26 27 27 29 30 31 33 34 36 37 38 39 40 41 43 44 45 46 48 50 51 52 54 54 52 50 47 45 44 43 44 45 43 38 33 31 31 27 16 9 9 8 4 5 7 7 6 5 5 7 8 11 13 14 17 21 25 30 34 37 40 44 46
14 15 16 17 18 20 21 23 24 24 25 26 26 26 27 28 29 30 32 33 34 36 37 39 40 41 43 44 46 47 49 50 51 53 54 53 51 48 46 46 47 46 45 43 39 33 30 29 27 18 10 9 8 4 5 11 11 6 5 8 9 8 9 11 12 14 18 22 26 29 33 36 38 42
14 15 16 17 18 19 20 22 22 23 24 24 25 25 26 27 28 29 30 32 33 35 37 38 39 41 42 44 45 46 48 49 50 51 53 54 53 50 48 47 48 48 48 47 44 37 30 28 27 20 10 8 9 6 5 10 10 5 7 11 9 8 9 12 14 13 14 17 20 22 26 29 30 34
14 15 16 17 18 19 20 21 22 23 23 23 24 25 26 26 27 28 30 31 32 34 36 37 38 40 41 43 45 46 48 49 49 50 51 52 53 53 51 49 47 47 47 47 46 43 36 29 26 23 16 11 13 12 8 8 8 9 12 12 8 9 11 12 15 16 14 15 17 16 19 24 27 30
14 15 16 17 18 19 20 21 22 23 24 24 24 25 26 26 27 28 29 30 31 32 34 35 36 38 40 42 44 45 47 48 48 49 49 50 51 52 53 51 49 47 46 46 45 45 42 35 28 25 21 17 16 16 15 17 16 12 10 10 11 14 16 15 17 19 18 18 19 18 20 23 26 31
14 15 16 17 18 19 21 22 23 24 25 26 26 26 26 26 27 28 28 30 31 32 32 34 35 36 38 39 41 43 45 46 48 48 49 50 50 51 51 51 51 48 46 46 45 45 45 42 36 31 25 18 13 14 19 23 22 15 9 10 16 21 21 17 16 17 18 17 16 19 23 23 24 27
14 15 16 18 19 20 21 22 23 25 26 27 27 27 27 27 27 27 28 28 29 30 31 32 33 35 36 37 39 41 42 44 46 47 48 48 49 49 50 51 51 50 48 46 45 44 45 46 44 40 34 26 20 18 19 20 16 13 10 14 19 24 23 17 12 13 16 15 12 13 17 19 19 22
15 16 17 18 19 20 21 22 23 25 26 27 27 28 27 27 26 26 27 27 27 28 29 30 31 33 34 36 37 39 40 42 43 45 46 47 48 48 49 49 49 50 49 47 45 44 44 46 46 45 41 36 31 26 21 15 12 11 9 11 14 19 22 20 17 16 16 14 11 11 12 12 14 17
15 16 17 19 19 21 22 22 23 24 25 26 27 27 28 27 26 26 26 25 26 26 27 28 29 31 32 34 35 37 38 40 42 43 44 46 46 47 47 47 47 48 48 47 46 45 45 46 46 46 44 39 35 31 27 23 20 16 10 7 8 10 13 14 13 12 13 12 8 7 7 5 6 10
16 17 18 19 20 21 22 23 23 24 25 26 26 27 28 28 27 27 26 26 25 26 26 27 28 29 30 31 33 34 35 37 39 41 42 43 44 45 45 45 45 45 46 46 47 47 47 47 45 43 42 39 35 31 28 28 26 22 16 11 7 3 2 3 5 6 6 6 4 3 3 2 2 5
16 17 18 19 21 22 23 23 24 24 25 26 26 27 28 29 29 28 28 27 27 26 26 26 27 28 29 30 31 32 33 34 35 37 38 40 41 42 43 43 43 43 44 45 46 46 47 46 42 38 36 34 32 29 27 27 28 26 23 21 18 12 7 5 6 7 6 4 2 0 2 2 3 4
18 18 19 20 22 23 24 24 24 25 25 26 27 27 28 28 29 29 29 28 28 28 27 27 27 27 27 28 29 30 31 32 33 34 35 37 38 39 40 41 42 42 42 43 44 43 42 41 39 37 34 32 31 32 32 31 30 28 27 26 25 22 18 15 11 7 5 4 2 1 3 4 4 5
20 20 21 21 22 23 25 25 26 26 26 27 28 28 28 28 28 28 29 29 28 28 28 28 27 27 27 27 28 29 30 30 31 32 32 34 36 37 38 39 40 40 40 39 39 39 38 37 37 37 36 35 35 35 34 33 30 28 27 27 26 25 24 22 18 13 8 5 4 3 4 4 4 6
21 21 22 22 23 24 25 26 26 27 27 27 28 28 28 28 28 28 28 28 28 28 28 28 28 28 28 27 27 27 27 28 29 30 30 31 33 34 35 36 36 36 36 36 36 35 36 36 37 37 37 38 38 36 35 33 30 28 27 26 25 25 24 22 18 14 9 7 9 9 8 7 6 7
21 22 22 23 24 25 26 26 27 27 27 28 27 27 28 28 29 29 29 29 29 29 29 28 28 28 28 27 27 26 26 26 27 28 28 28 29 30 31 32 33 34 34 34 34 34 34 34 34 35 36 36 36 36 35 32 30 27 25 24 23 23 22 20 17 14 11 10 14 16 14 13 12 11
Wind_Direction
317 320 322 324 326 327 328 329 329 329 329 329 331 332 333 333 333 333 333 331 329 327 325 322 322 321 318 316 315 313 311 309 307 305 303 300 298 296 294 291 289 286 283 280 277 274 273 271 268 265 261 258 254 248 246 243 240 243 241 241 242 228 217 220 225 223 221 222 223 223 222 223 223 223
320 323 325 327 328 329 329 329 329 329 331 333 335 335 335 335 334 332 333 334 331 329 329 326 324 322 320 317 315 313 311 309 307 305 303 301 299 296 293 291 288 286 283 281 278 273 271 269 267 265 262 259 254 249 246 242 238 239 240 236 232 226 217 217 225 227 223 223 225 226 225 225 225 225
323 326 327 328 329 329 329 329 331 333 335 336 336 336 335 334 334 332 331 333 333 330 329 328 325 323 322 319 316 313 311 309 306 304 302 300 298 296 293 290 288 286 284 281 278 275 270 267 265 263 262 259 255 250 245 243 238 235 239 237 229 224 218 214 220 227 227 227 227 227 228 227 225 225
326 328 329 329 329 328 330 332 334 336 337 337 336 336 335 334 333 333 331 331 333 332 329 328 327 325 324 323 321 317 314 312 309 306 303 300 298 296 294 291 288 286 284 281 278 276 271 267 264 261 260 258 255 252 245 242 239 236 238 240 235 230 224 216 217 224 227 228 228 229 229 229 227 225
327 329 328 328 328 330 332 335 336 337 337 337 337 336 335 334 333 333 332 331 331 332 331 329 329 328 327 327 325 322 319 317 313 310 307 304 301 298 295 292 290 287 285 282 279 276 272 268 263 259 258 256 254 253 247 242 240 237 236 238 239 236 229 223 222 225 226 226 228 230 228 229 229 225
328 328 327 328 330 333 335 336 337 337 337 337 337 336 335 335 335 333 332 331 331 332 333 332 331 331 330 329 328 326 323 321 318 315 312 308 305 301 298 294 292 289 287 284 281 278 274 269 264 259 256 254 253 251 249 243 239 237 235 235 237 235 230 227 227 227 225 223 225 228 228 227 228 224
327 327 328 330 333 335 336 337 338 338 339 338 337 337 337 336 336 335 333 333 333 333 335 335 334 333 333 332 331 328 326 324 323 320 318 314 310 306 302 297 295 293 290 287 283 280 276 272 266 260 255 252 251 250 249 245 240 236 235 233 232 231 229 229 229 227 225 224 224 227 228 226 225 223
326 328 331 333 335 336 337 339 340 339 339 339 339 339 338 337 337 337 336 337 337 336 336 337 337 336 335 334 333 330 328 327 326 323 321 318 313 309 306 303 300 298 295 291 285 280 277 274 270 264 257 251 249 248 247 245 241 236 233 232 230 229 228 229 231 230 227 225 226 227 227 226 224 221
327 330 333 335 336 338 340 341 341 340 339 340 341 340 339 338 339 339 339 340 340 339 338 338 338 338 336 335 335 333 330 328 327 324 322 320 317 313 310 309 309 306 302 296 287 280 276 274 271 268 261 253 248 246 245 244 242 238 233 231 229 228 227 227 230 232 229 227 228 227 225 225 224 222
331 333 334 337 338 340 342 342 341 342 343 342 341 340 340 340 341 342 342 342 342 342 341 340 339 339 339 337 336 335 333 331 329 326 323 323 323 321 318 317 318 318 313 303 291 280 274 271 269 268 265 259 250 246 243 243 242 239 235 230 228 228 227 227 227 229 229 229 229 229 226 225 225 224
333 335 337 339 341 342 342 342 343 345 345 344 342 342 342 343 344 344 343 343 343 343 343 342 340 340 340 339 338 336 335 333 332 330 328 328 331 331 329 328 327 327 321 308 294 282 274 269 266 265 264 262 256 248 243 241 241 240 237 231 228 227 227 227 227 227 228 229 229 229 227 224 223 224
336 338 341 342 343 344 343 345 347 348 346 345 345 345 345 345 345 345 345 344 344 344 344 343 342 341 342 341 339 338 337 335 335 334 333 335 336 335 335 336 336 332 322 305 291 281 273 266 262 261 261 260 258 253 246 241 239 238 238 234 229 227 226 226 227 226 226 227 227 228 227 224 221 221
339 341 344 344 344 346 347 349 350 350 348 347 348 348 347 346 345 345 346 346 345 345 345 345 343 342 343 344 341 340 339 338 337 337 336 338 339 337 336 338 340 336 321 298 283 278 272 263 258 257 257 256 256 255 250 244 240 237 237 235 231 227 226 225 225 225 225 225 224 225 227 225 222 221
342 343 345 345 347 350 352 353 352 351 351 351 351 350 348 346 346 346 347 347 346 346 346 346 345 344 344 345 343 341 341 339 338 338 338 339 340 339 336 336 342 340 320 295 282 277 273 265 256 252 252 252 252 252 251 247 243 238 235 235 233 228 225 225 224 223 223 223 223 224 226 225 223 222
343 345 346 347 350 353 355 354 353 353 354 354 353 351 350 349 348 348 348 348 347 346 346 347 347 345 345 346 345 342 341 341 340 339 339 339 338 338 336 336 342 341 318 296 288 281 277 270 261 253 250 249 249 249 249 248 245 240 235 234 233 230 226 224 224 222 221 221 221 223 225 224 223 222
344 346 348 349 352 355 356 356 356 357 357 356 354 353 352 352 352 350 349 348 347 346 347 349 349 347 345 346 346 345 343 341 340 339 338 338 336 335 336 336 339 338 315 297 292 288 285 277 267 258 252 249 248 248 248 247 246 243 239 234 232 231 227 223 223 223 221 220 220 222 224 225 224 222
347 349 351 352 354 356 356 357 358 359 358 356 355 354 355 355 354 353 351 348 347 348 349 350 350 348 346 346 347 346 343 341 340 339 338 337 334 333 334 335 337 335 316 300 295 293 293 285 273 268 262 255 249 247 247 246 246 245 242 237 233 231 229 224 222 223 223 222 221 220 221 224 224 223
351 353 354 355 357 357 358 359 359 358 357 356 355 356 357 357 356 354 352 350 350 351 351 351 350 349 347 348 348 347 344 341 339 338 337 336 334 333 334 337 340 335 318 305 298 296 299 296 285 279 276 267 257 250 246 245 245 244 244 241 237 232 230 226 222 222 223 223 222 220 219 221 224 223
356 356 357 359 360 0 1 1 359 357 357 356 356 357 358 358 357 357 355 354 354 354 353 352 351 350 350 350 349 348 345 341 338 337 336 335 335 334 337 346 352 339 319 310 303 301 307 310 303 296 290 280 271 262 251 245 243 243 243 242 240 236 232 228 223 221 222 224 222 220 218 218 222 223
0 1 2 3 4 4 3 1 359 357 356 355 355 357 358 357 359 360 359 358 357 355 355 354 352 351 352 352 352 350 346 342 339 338 338 338 339 340 345 355 3 348 327 317 310 309 316 320 312 304 297 288 283 277 263 250 243 241 241 242 241 238 234 230 226 222 222 223 223 220 217 216 220 224
5 6 8 8 8 7 4 1 359 358 356 355 354 356 357 357 358 1 2 2 360 357 356 355 353 353 353 354 355 353 349 344 341 341 343 343 344 346 349 353 356 351 340 328 320 320 325 324 311 301 296 293 290 284 271 258 247 241 239 240 240 239 236 232 227 222 221 223 223 221 216 214 218 223
8 10 11 11 10 8 5 2 0 359 356 354 354 356 357 358 358 0 3 3 2 359 357 356 356 356 356 357 358 357 353 347 344 345 346 346 347 349 349 348 348 349 346 338 333 334 337 331 317 305 299 295 292 284 274 264 253 243 238 237 238 238 235 232 227 223 221 222 223 221 217 213 216 221
9 11 12 12 9 7 6 3 1 359 356 354 355 356 357 358 359 2 3 3 2 0 358 357 358 359 360 360 1 1 357 351 348 348 348 350 351 349 347 347 345 345 347 343 339 339 337 331 322 312 305 299 289 280 275 266 255 244 238 235 236 237 235 231 227 222 219 221 222 221 217 214 214 217
9 12 12 10 7 6 5 3 1 359 357 356 356 357 357 358 360 3 4 3 2 1 360 359 359 360 2 2 3 4 1 356 353 352 352 354 354 350 348 348 345 344 346 345 341 339 337 333 328 320 313 306 292 280 276 268 257 245 237 233 233 235 234 231 227 222 218 219 221 220 217 215 216 217
8 11 9 6 4 3 3 2 1 359 357 357 357 357 358 359 0 2 3 3 3 2 1 1 0 1 3 4 5 6 5 1 357 356 357 357 356 354 351 348 346 345 345 346 345 340 338 337 335 332 327 318 305 291 278 268 260 247 237 232 231 232 232 230 226 222 217 217 219 219 217 216 217 218
5 7 5 2 360 359 359 360 359 358 357 357 357 357 358 359 359 1 2 2 3 3 3 3 3 3 4 5 6 8 8 5 1 360 0 359 358 358 355 350 347 344 345 350 351 346 340 337 334 335 336 332 319 301 281 265 258 247 236 231 228 229 230 229 226 222 218 216 218 218 217 217 218 218
1 2 1 359 356 355 356 356 356 356 356 356 357 357 357 357 358 360 1 1 3 4 5 5 6 6 6 6 7 8 9 8 5 2 1 2 1 0 357 353 349 345 343 345 347 347 344 338 333 331 331 332 329 314 292 268 254 246 236 229 227 227 228 228 226 222 218 217 217 217 216 217 218 216
356 357 357 356 353 351 352 352 353 353 354 355 355 355 356 356 356 358 360 1 3 5 6 7 8 9 9 7 7 8 9 9 7 5 4 5 7 5 2 359 354 349 346 341 339 342 341 335 332 329 326 331 342 334 311 282 246 240 231 224 224 224 226 228 225 221 218 217 217 216 215 216 218 216
351 353 354 354 351 349 349 349 350 350 350 352 354 353 354 354 354 357 359 1 3 5 7 9 10 11 11 10 8 8 9 9 9 8 7 9 11 11 9 7 3 358 357 355 352 351 346 339 339 339 334 341 358 14 41 79 140 206 207 214 220 220 224 228 225 220 219 217 215 215 215 215 217 217
348 349 352 352 350 347 346 346 347 347 348 350 351 351 351 352 353 355 358 0 2 4 7 9 11 12 12 12 9 8 9 10 10 10 9 10 12 13 12 13 12 9 7 6 4 2 356 348 352 4 5 354 1 69 102 97 90 75 112 188 208 210 217 224 221 217 218 217 213 213 213 215 217 218
347 348 350 350 348 345 344 345 346 346 346 347 348 348 348 350 352 355 357 359 0 2 6 9 11 12 13 13 12 10 10 11 12 12 11 11 12 14 14 15 17 19 17 13 7 3 0 358 1 11 14 4 16 61 70 56 59 65 85 136 166 187 207 216 217 213 212 212 211 209 209 212 215 216
346 346 346 346 346 345 344 344 344 344 343 343 344 346 347 348 351 353 355 357 359 1 5 8 10 12 13 13 14 13 11 12 13 13 13 12 13 15 16 17 18 21 24 24 19 10 5 5 7 8 6 20 39 51 44 52 60 58 78 111 137 169 187 192 197 201 203 204 205 207 207 210 215 217
340 341 341 342 343 343 342 342 341 341 341 342 342 344 345 346 349 351 353 355 358 360 3 6 8 11 12 13 14 15 13 13 13 13 14 13 14 16 18 20 20 20 22 27 30 27 21 17 20 27 39 50 53 60 74 72 69 72 95 110 139 167 166 171 177 181 190 191 190 199 204 202 208 217
333 335 337 337 338 339 339 339 339 339 340 342 343 344 345 346 348 350 351 353 356 358 1 3 5 8 10 12 13 14 15 14 14 14 15 14 14 15 18 21 23 23 22 25 29 33 37 36 38 50 67 74 63 62 86 98 84 85 103 119 143 143 140 158 165 160 171 180 179 194 205 197 201 215
327 330 333 333 335 337 337 337 337 338 339 342 344 345 346 346 348 349 349 351 354 356 358 360 2 5 9 10 12 13 14 15 14 14 15 15 15 16 18 20 22 23 24 25 26 30 36 41 48 60 73 79 72 68 85 106 107 103 116 141 152 142 140 153 159 160 170 174 169 180 196 198 206 217
323 326 330 331 333 335 336 336 336 337 338 339 341 344 346 346 347 348 349 350 352 353 355 356 358 1 5 8 11 12 12 13 14 14 15 16 16 17 17 20 21 22 23 25 27 28 32 37 43 52 63 78 86 68 61 77 99 118 126 123 134 145 153 157 156 162 177 181 175 186 198 205 214 220
319 323 327 329 331 333 334 334 335 335 336 336 338 340 343 345 346 347 348 349 349 350 351 352 354 357 0 4 8 10 11 12 13 14 15 16 17 17 17 18 21 22 22 23 25 27 30 34 37 41 47 56 73 74 56 53 78 109 97 77 98 125 142 152 153 158 172 179 182 194 206 212 216 218
317 321 324 326 328 329 331 332 333 333 333 334 334 336 338 340 343 344 345 346 346 346 347 349 351 353 356 359 2 6 9 11 12 13 14 15 16 18 18 17 19 21 22 22 23 24 28 31 33 35 37 40 50 65 70 63 69 89 78 49 65 98 122 144 163 164 156 151 149 161 180 191 194 198
314 318 320 323 325 326 327 329 330 330 330 329 330 331 332 334 337 339 340 342 343 344 345 346 348 350 352 355 358 1 5 8 10 11 13 15 15 17 18 18 18 19 21 22 23 24 27 30 30 30 31 33 37 47 59 65 68 75 80 60 45 69 102 126 144 140 124 116 117 137 156 167 168 176
310 313 317 320 322 323 325 326 327 328 327 325 325 325 326 328 330 333 335 336 338 340 342 343 344 347 348 351 354 357 0 4 7 9 11 13 14 15 17 18 18 19 19 21 23 25 27 30 30 28 27 28 30 36 47 59 66 71 78 80 70 36 21 46 29 32 66 95 119 136 143 179 198 181
308 311 314 317 319 320 322 324 325 326 325 322 320 320 320 323 325 327 329 331 333 335 338 340 341 343 345 347 350 353 356 359 3 6 9 11 13 14 15 16 18 19 20 21 23 25 27 29 30 30 29 28 28 31 37 47 55 60 64 66 67 64 55 34 3 345 345 354 355 152 172 201 209 205
308 311 313 315 316 317 319 321 323 323 322 319 317 315 316 319 321 323 325 327 329 330 333 335 337 339 341 343 346 349 353 355 358 1 5 8 10 12 14 15 17 18 19 21 23 25 26 27 28 30 32 33 32 32 33 37 44 50 56 58 59 59 60 58 52 37 17 9 7 169 170 171 184 197
305 308 310 311 313 314 316 318 319 320 319 317 315 314 315 316 318 320 321 323 325 326 328 330 333 335 337 340 343 346 349 351 354 356 0 4 7 9 12 14 15 17 18 20 22 23 23 23 24 26 28 33 35 35 33 34 37 43 48 52 54 55 56 54 50 46 47 60 81 105 126 144 172 187
299 302 305 308 310 311 312 314 316 317 316 315 313 313 314 314 316 318 319 320 321 323 325 327 330 331 334 336 340 343 346 348 349 352 356 359 2 5 8 11 13 15 17 18 20 22 22 22 22 22 23 28 34 37 36 33 32 35 41 46 49 52 53 53 50 46 50 75 89 88 88 96 121 147
295 298 302 305 307 308 309 311 313 315 314 312 311 311 312 313 315 316 318 319 320 321 323 325 327 329 330 332 335 338 342 346 348 348 350 354 357 0 3 7 10 12 14 15 17 20 22 22 22 22 22 24 29 35 38 37 34 34 36 39 44 49 53 54 54 51 52 73 87 87 85 87 94 107